Nouasseur, Morocco

9:36 PM WEST on October 21, 2017 (GMT +0100)
Nouasseur

Weather History for GMMN - February, 2013

Change the Weather History Date:

Friday, February 1, 2013

  Actual Average Record
Temperature  
Mean Temperature 57 °F -  
Max Temperature 68 °F 64 °F 77 °F (2000)
Min Temperature 46 °F 43 °F 35 °F (2005)
Degree Days  
Heating Degree Days 8    
Growing Degree Days 7 (Base 50)    
Moisture  
Dew Point 51 °F    
Average Humidity 88    
Maximum Humidity 100    
Minimum Humidity 56    
Precipitation  
Precipitation 0.00 in - - ()
Sea Level Pressure  
Sea Level Pressure 30.38 in    
Wind  
Wind Speed 3 mph ()    
Max Wind Speed 12 mph    
Max Gust Speed -    
Visibility 1.8 miles    
Events Fog    
Averages and records for this station are not official NWS values.
T = Trace of Precipitation, MM = Missing Value Source: Averaged Metar Reports

Daily Weather History Graph

Daily Weather History Graph

Search for Another Location

Airport or City:

Trip Planner

Search our weather history database for the weather conditions in past years. The results will help you decide how hot, cold, wet, or windy it might be!

Date:

Astronomy

Feb. 01, 2013 Rise Set
Actual Time 7:26 AM WET 6:02 PM WET
Civil Twilight 7:00 AM WET 6:28 PM WET
Nautical Twilight 6:30 AM WET 6:57 PM WET
Astronomical Twilight 6:01 AM WET 7:27 PM WET
Moon 11:33 PM WET (2/1) 10:10 AM WET (2/1)
Length of Visible Light 11h 27m
Length of Day
10h 35m
Waning Gibbous, 72% of the Moon is Illuminated
Feb 1
Waning Gibbous
Feb 3
Last Quarter
Feb 10
New
Feb 17
First Quarter
Feb 25
Full

Hourly Weather History & Observations

Time (WET) Temp. Dew Point Humidity Pressure Visibility Wind Dir Wind Speed Gust Speed Precip Events Conditions
12:00 AM 49 °F 47 °F 91% 30.46 in 0 mi Calm Calm - - Fog Fog
12:00 AM 50.0 °F 46.4 °F 87% 30.45 in 0.2 mi Calm Calm - N/A Fog Fog
1:00 AM 48.2 °F 46.4 °F 93% 30.42 in 0.2 mi Calm Calm - N/A Fog Fog
1:30 AM 48.2 °F 46.4 °F 93% 30.42 in 0.3 mi NE 2.3 mph - N/A Fog Fog
2:00 AM 48.2 °F 46.4 °F 93% 30.42 in 0.2 mi Calm Calm - N/A Fog Fog
2:30 AM 46.4 °F 44.6 °F 93% 30.42 in 0.2 mi Calm Calm - N/A Fog Fog
3:00 AM 46 °F 44 °F 91% 30.43 in 0 mi SE 2.3 mph - - Fog Fog
3:00 AM 46.4 °F 44.6 °F 93% 30.39 in 0.2 mi SE 2.3 mph - N/A Fog Fog
3:30 AM 46.4 °F 44.6 °F 93% 30.39 in 0.2 mi Calm Calm - N/A Fog Fog
4:00 AM 48.2 °F 46.4 °F 93% 30.39 in 0.2 mi NNE 2.3 mph - N/A Fog Fog
4:30 AM 50.0 °F 48.2 °F 94% 30.39 in 0.2 mi NNE 3.5 mph - N/A Fog Fog
5:00 AM 50.0 °F 50.0 °F 100% 30.39 in 0.2 mi NE 3.5 mph - N/A Fog Fog
5:30 AM 51.8 °F 50.0 °F 94% 30.36 in 0.2 mi NE 4.6 mph - N/A Fog Fog
6:00 AM 51 °F 51 °F 98% 30.39 in 0 mi East 4.6 mph - - Fog Fog
6:00 AM 51.8 °F 50.0 °F 94% 30.36 in 0.2 mi East 4.6 mph - N/A Fog Fog
6:30 AM 50.0 °F 50.0 °F 100% 30.39 in 0.2 mi ENE 3.5 mph - N/A Fog Fog
7:00 AM 50.0 °F 50.0 °F 100% 30.36 in 0.2 mi Variable 2.3 mph - N/A Fog Fog
7:30 AM 50.0 °F 48.2 °F 94% 30.39 in 0.2 mi ESE 4.6 mph - N/A Fog Fog
8:00 AM 48.2 °F 48.2 °F 100% 30.39 in 0.2 mi SSE 3.5 mph - N/A Fog Fog
8:30 AM 46.4 °F 46.4 °F 100% 30.39 in 0.2 mi Calm Calm - N/A Fog Fog
8:48 AM 47 °F 46 °F 97% 30.43 in 0 mi Calm Calm - - Fog Partial Fog
9:00 AM 46.4 °F 46.4 °F 100% 30.39 in 0.2 mi Calm Calm - N/A Fog Fog
9:15 AM 48.2 °F 48.2 °F 100% 30.39 in 0.7 mi Calm Calm - N/A   Mostly Cloudy
9:30 AM 48.2 °F 48.2 °F 100% 30.39 in 0.7 mi Calm Calm - N/A   Mostly Cloudy
10:00 AM - - N/A% - 2.5 mi North - - N/A   Scattered Clouds
10:02 AM 51.8 °F 51.8 °F 100% 30.39 in 3.1 mi Variable 1.2 mph - N/A   Partly Cloudy
10:30 AM 55.4 °F 55.4 °F 100% 30.39 in 6.2 mi Calm Calm - N/A   Partly Cloudy
11:00 AM 57.2 °F 57.2 °F 100% 30.39 in 5.0 mi Calm Calm - N/A   Partly Cloudy
11:30 AM 59.0 °F 57.2 °F 94% 30.39 in 6.2 mi Calm Calm - N/A   Partly Cloudy
12:00 PM 60 °F 57 °F 87% 30.38 in 6 mi NE 3.5 mph - -   Partly Cloudy
12:00 PM 60.8 °F 57.2 °F 88% 30.36 in - Variable 3.5 mph - N/A   Clear
12:30 PM 64.4 °F 55.4 °F 73% 30.36 in - NNE 4.6 mph - N/A   Clear
1:00 PM 68.0 °F 51.8 °F 56% 30.36 in - NNE 5.8 mph - N/A   Clear
1:30 PM 68.0 °F 57.2 °F 68% 30.36 in - NNW 6.9 mph - N/A   Clear
2:00 PM 66.2 °F 57.2 °F 73% 30.36 in 3.7 mi NNW 11.5 mph - N/A   Unknown
2:30 PM 64.4 °F 55.4 °F 73% 30.36 in 3.1 mi NNW 11.5 mph - N/A   Unknown
3:00 PM 64 °F 53 °F 60% 30.35 in 4 mi North 10.4 mph - -   Clear
3:00 PM 64.4 °F 53.6 °F 68% 30.33 in 3.7 mi North 10.4 mph - N/A   Unknown
3:30 PM 64.4 °F 55.4 °F 73% 30.33 in - North 10.4 mph - N/A   Clear
4:00 PM 64.4 °F 55.4 °F 73% 30.33 in - North 9.2 mph - N/A   Clear
4:30 PM 62.6 °F 53.6 °F 72% 30.33 in - North 9.2 mph - N/A   Clear
5:00 PM 60.8 °F 53.6 °F 77% 30.36 in - NNE 8.1 mph - N/A   Clear
5:30 PM 60.8 °F 53.6 °F 77% 30.33 in - NNE 5.8 mph - N/A   Clear
6:00 PM 59 °F 53 °F 73% 30.35 in 5 mi NNE 4.6 mph - -  
6:00 PM 59.0 °F 53.6 °F 82% 30.33 in 5.0 mi NNE 4.6 mph - N/A   Unknown
6:30 PM 57.2 °F 51.8 °F 82% 30.36 in 4.3 mi NE 3.5 mph - N/A   Unknown
7:00 PM 55.4 °F 51.8 °F 88% 30.36 in 4.3 mi East 3.5 mph - N/A   Unknown
7:30 PM 55.4 °F 50.0 °F 82% 30.36 in 3.7 mi East 2.3 mph - N/A   Unknown
7:39 PM 53.6 °F 50.0 °F 88% 30.36 in 2.5 mi ENE 3.5 mph - N/A   Partly Cloudy
8:00 PM 53.6 °F 50.0 °F 88% 30.36 in 3.1 mi NNE 2.3 mph - N/A   Partly Cloudy
8:30 PM 53.6 °F 50.0 °F 88% 30.36 in 2.2 mi North 4.6 mph - N/A   Partly Cloudy
8:58 PM 51.8 °F 48.2 °F 88% 30.36 in 0.5 mi North 6.9 mph - N/A Fog Fog
9:00 PM 51 °F 48 °F 87% 30.38 in 0 mi North 6.9 mph - -   Mist
9:00 PM 51.8 °F 48.2 °F 88% 30.36 in 1.7 mi North 6.9 mph - N/A   Partly Cloudy
9:29 PM 53.6 °F 51.8 °F 94% 30.39 in 0.9 mi North 8.1 mph - N/A   Scattered Clouds
9:30 PM 53.6 °F 50.0 °F 88% 30.36 in 0.5 mi North 9.2 mph - N/A Fog Fog
10:00 PM 55.4 °F 51.8 °F 88% 30.36 in 3.7 mi NNE 4.6 mph - N/A   Scattered Clouds
10:30 PM 53.6 °F 50.0 °F 88% 30.36 in 3.1 mi East 3.5 mph - N/A   Scattered Clouds
11:00 PM 51.8 °F 50.0 °F 94% 30.36 in 2.5 mi East 3.5 mph - N/A   Scattered Clouds
11:30 PM 50.0 °F 48.2 °F 94% 30.36 in 1.9 mi SE 6.9 mph - N/A   Scattered Clouds